Change the Weather History Date:

Friday, March 1, 2013

  Actual Average Record
Temperature  
Mean Temperature 37 °F -  
Max Temperature 42 °F 43 °F 65 °F (1972)
Min Temperature 32 °F 23 °F 1 °F (2014)
Degree Days  
Heating Degree Days 28    
Moisture  
Dew Point 28 °F    
Average Humidity 71    
Maximum Humidity 93    
Minimum Humidity 51    
Precipitation  
Precipitation 0.00 in - - ()
Sea Level Pressure  
Sea Level Pressure 29.67 in    
Wind  
Wind Speed 5 mph (NW)    
Max Wind Speed 12 mph    
Max Gust Speed 17 mph    
Visibility 10 miles    
Events Rain    
Averages and records for this station are not official NWS values.
T = Trace of Precipitation, MM = Missing Value Source: NWS Daily Summary

Daily Weather History Graph

Daily Weather History Graph

Search for Another Location

Airport or City:

Trip Planner

Search our weather history database for the weather conditions in past years. The results will help you decide how hot, cold, wet, or windy it might be!

Date:

Astronomy

Mar. 01, 2013 Rise Set
Actual Time 6:28 AM EST 5:44 PM EST
Civil Twilight 6:00 AM EST 6:12 PM EST
Nautical Twilight 5:28 AM EST 6:44 PM EST
Astronomical Twilight 4:56 AM EST 7:16 PM EST
Moon 10:19 PM EST (3/1) 8:09 AM EST (3/1)
Length of Visible Light 12h 12m
Length of Day
11h 16m
Waning Gibbous, 83% of the Moon is Illuminated
Mar 1
Waning Gibbous
Mar 4
Last Quarter
Mar 11
New
Mar 19
First Quarter
Mar 27
Full

Hourly Weather History & Observations

Time (EST) Temp. Windchill Dew Point Humidity Pressure Visibility Wind Dir Wind Speed Gust Speed Precip Events Conditions
12:12 AM 37.4 °F 32.1 °F 33.8 °F 87% 29.59 in 10.0 mi NW 6.9 mph - 0.00 in Rain Light Rain
12:53 AM 36.0 °F - 33.1 °F 89% 29.60 in 10.0 mi Calm Calm - 0.00 in   Overcast
1:53 AM 35.1 °F - 32.0 °F 89% 29.60 in 10.0 mi Calm Calm - N/A   Mostly Cloudy
2:53 AM 34.0 °F 31.0 °F 30.9 °F 89% 29.59 in 10.0 mi WSW 3.5 mph - N/A   Scattered Clouds
3:53 AM 32.0 °F 28.7 °F 30.0 °F 92% 29.61 in 10.0 mi WSW 3.5 mph - N/A   Scattered Clouds
4:11 AM 32.0 °F - 30.2 °F 93% 29.61 in 10.0 mi Calm Calm - N/A   Mostly Cloudy
4:53 AM 33.1 °F - 30.0 °F 89% 29.63 in 10.0 mi Calm Calm - N/A   Overcast
5:53 AM 35.1 °F 32.2 °F 30.0 °F 82% 29.64 in 10.0 mi West 3.5 mph - N/A   Overcast
7:53 AM 37.0 °F - 30.9 °F 79% 29.67 in 10.0 mi Calm Calm - N/A   Mostly Cloudy
9:53 AM 39.9 °F 33.9 °F 27.0 °F 60% 29.68 in 10.0 mi North 9.2 mph - N/A   Overcast
10:53 AM 41.0 °F 35.2 °F 27.0 °F 57% 29.68 in 10.0 mi North 9.2 mph - N/A   Overcast
11:53 AM 42.1 °F 36.1 °F 27.0 °F 55% 29.68 in 10.0 mi NNW 10.4 mph - N/A   Overcast
12:53 PM 42.1 °F 36.1 °F 25.0 °F 51% 29.67 in 10.0 mi NW 10.4 mph - N/A   Overcast
1:53 PM 42.1 °F 38.4 °F 25.0 °F 51% 29.67 in 10.0 mi NNW 5.8 mph - N/A   Overcast
2:53 PM 41.0 °F 34.3 °F 24.1 °F 51% 29.68 in 10.0 mi NNW 11.5 mph - N/A   Overcast
3:53 PM 39.9 °F 35.1 °F 26.1 °F 58% 29.68 in 10.0 mi NW 6.9 mph - N/A   Overcast
4:53 PM 39.9 °F 33.4 °F 25.0 °F 55% 29.70 in 10.0 mi NW 10.4 mph 17.3 mph N/A   Overcast
5:53 PM 39.0 °F 33.4 °F 27.0 °F 62% 29.72 in 10.0 mi NNW 8.1 mph - N/A   Overcast
6:53 PM 37.9 °F 32.7 °F 28.0 °F 68% 29.74 in 10.0 mi NNW 6.9 mph - N/A   Overcast
7:53 PM 37.9 °F 31.5 °F 28.0 °F 68% 29.75 in 10.0 mi NNW 9.2 mph - N/A   Overcast
9:53 PM 36.0 °F 29.6 °F 27.0 °F 70% 29.76 in 10.0 mi NW 8.1 mph - N/A   Overcast
10:53 PM 36.0 °F 33.3 °F 27.0 °F 70% 29.77 in 10.0 mi NNW 3.5 mph - N/A   Overcast
11:53 PM 35.1 °F 28.6 °F 25.0 °F 67% 29.76 in 10.0 mi WNW 8.1 mph - N/A   Overcast